ALSAT 1 1 27559U 02054A 10067.82670763 +.00000061 +00000-0 +18392-4 0 02517 2 27559 097.9044 299.7810 0022343 231.1493 128.7729 14.69371984388586 NIGERIASAT 1 1 27941U 03042C 10067.82239832 +.00000004 +00000-0 +95589-5 0 03149 2 27941 097.9081 297.1973 0012142 028.0714 332.1136 14.63063303344233 UK-DMC 1 27942U 03042D 10067.85553472 +.00000030 +00000-0 +14626-4 0 03064 2 27942 097.9070 296.9470 0011974 035.4067 324.7925 14.63058895344239 BILSAT 1 1 27943U 03042E 10065.73766257 .00000019 00000-0 12397-4 0 1605 2 27943 097.9045 294.5840 0012352 032.3183 327.8784 14.62938474343913 BEIJING 1 (TSINGHUA) 1 28890U 05043A 10067.81724964 -.00000013 +00000-0 +66506-5 0 00448 2 28890 098.0203 315.3350 0014541 233.9233 126.0624 14.60087073232522 HJ-1A 1 33320U 08041A 10065.49133680 .00000064 00000-0 17032-4 0 6556 2 33320 097.9527 142.1621 0024125 320.7931 039.1531 14.75230564 80566 HJ-1B 1 33321U 08041B 10065.38790289 .00000034 00000-0 12683-4 0 6935 2 33321 097.9549 142.0994 0042661 332.3811 027.5139 14.75240580 80535 YAOGAN 4 1 33446U 08061A 10067.82586776 -.00000031 +00000-0 +28470-5 0 04174 2 33446 097.8772 147.5207 0012627 254.5436 105.4362 14.75510330068223 YAOGAN 5 1 33456U 08064A 10065.54562708 .00001590 00000-0 66254-4 0 3983 2 33456 097.3454 141.2885 0005229 151.4124 332.6247 15.25147360 68038